Regional Weather Roundup
Issued by NWS Charleston, SC

Current Version | Previous Version | Graphics & Text | Print | Product List | Glossary On
Versions: 1 2 3 4 5 6 7 8 9 10 11 12 13 14 15 16 17 18 19 20 21 22 23 24 25 26 27 28 29 30 31 32 33 34 35 36 37 38 39 40 41 42 43 44 45 46 47 48 49 50
000 ASUS42 KCHS 202210 RWRCHS REGIONAL WEATHER ROUNDUP NATIONAL WEATHER SERVICE CHARLESTON SC 600 PM EDT WED AUG 20 2014 NOTE: "FAIR" INDICATES FEW OR NO CLOUDS BELOW 12,000 FEET WITH NO SIGNIFICANT WEATHER AND/OR OBSTRUCTIONS TO VISIBILITY. NOT ALL STATIONS ARE QUALITY CONTROLLED BY THE NATIONAL WEATHER SERVICE. USE DATA WITH CAUTION...ESPECIALLY DEWPOINT OBSERVATIONS. SCZ027-030-031-034>040-042>050-202300- ...SOUTH CAROLINA... CITY SKY/WX TMP DP RH WIND PRES REMARKS N CHARLESTON MOSUNNY 94 71 47 W6 29.96F HX 101 WATERFRONT PRK N/A 93 N/A N/A W5 N/A FORT JOHNSON NOT AVBL MOUNT PLEASANT FAIR 93 73 52 CALM 29.96S HX 102 JOHNS ISLAND CLEAR 93 73 52 CALM 29.97S HX 102 PINOPOLIS N/A 95 75 52 CALM 29.89F HX 107 MONCKS CORNER NOT AVBL SUMMERVILLE FAIR 93 73 52 SW5 29.97S HX 102 BEAUFORT MCAS MOSUNNY 95 67 39 N6 29.97R HX 99 BEAUFORT ARPT MOCLDY 93 73 52 W5 29.97R HX 102 HILTON HEAD IS MOSUNNY 93 70 46 W5 29.99R HX 99 GEORGETOWN NOT AVBL WALTERBORO PTCLDY 95 64 36 W6 29.97S HX 97 ORANGEBURG SUNNY 93 68 43 SW5 29.96S HX 97 BARNWELL FAIR 95 66 38 CALM 29.97F HX 98 AIKEN FAIR 90 72 55 SW6 30.01S HX 96 MANNING FAIR 93 73 52 S3 29.96S HX 102 KINGSTREE NOT AVBL COLUMBIA MOSUNNY 95 66 38 NW7 29.95R HX 98 SUMTER MOSUNNY 93 74 53 SW6 29.95S HX 102 FLORENCE MOSUNNY 93 69 45 NW3 29.95F HX 98 MYRTLE BEACH PTSUNNY 90 75 62 S12 29.95F HX 100 N MYRTLE BEACH MOSUNNY 81 74 79 CALM 29.96F $$ GAZ063-065-086>088-099>101-113>116-118-119-134-136>141-150-202300- ...GEORGIA... CITY SKY/WX TMP DP RH WIND PRES REMARKS SAVANNAH ARPT MOSUNNY 95 70 44 NW5 29.98R HX 101 HUNTER AAF MOSUNNY 93 72 49 W3 29.96S HX 100 FORT STEWART MOSUNNY 95 71 45 W6 29.98R HX 101 STATESBORO NOT AVBL SYLVANIA PTCLDY 95 73 48 W6 29.99S HX 105 CLAXTON FAIR 97 72 44 NW5 29.97F HX 105 THOMSON CLOUDY 80 78 94 SE7 30.03F AUGUSTA-BUSH PTSUNNY 86 68 54 S9 29.97R AUGUSTA-DANIEL LGT RAIN 88 70 55 CALM 29.99S HX 93 SWAINSBORO MOCLDY 95 72 46 W6 30.00R HX 103 VIDALIA N/A 93 72 49 CALM 29.99S HX 100 ALMA SUNNY 94 70 45 W8 30.00R HX 100 WAYCROSS MOSUNNY 98 73 44 W5 30.00S HX 108 JESUP N/A 95 75 52 W5 30.00R HX 107 BRUNSWICK SUNNY 95 68 41 W5 30.00R HX 99 SAINT SIMONS MOSUNNY 94 68 42 NW6 29.99R HX 98 $$ SCZ027-028-034-036>038-045-046-048>050-GAZ119-141-202300- ...LAKE AND SUPPLEMENTAL COASTAL OBSERVATIONS... STATION/POSITION TIME TEMP WIND PRES WAVE SWELL AIR SEA DIR/SP/G HT/PER HT/PER/DIR (UTC) (F) (DEG/KT/KT) (MB) (FT/S) (FT/S/D) UPR LAKE MARION NOT AVBL WINYAH BAY 2100 87 200/ 9 1015.0R LAKE MURRAY 2100 92 170/ 6/ 6 1013.9S ACE BASIN NERRS 2100 95 310/ 3 1015.0S FORT PULASKI 2200 92 290/ 7/ 9 1015.4R SAPELO ISLAND 2100 94 260/ 9 1016.0S $$ ANZ835-935-AMZ111-154-330-350-352-354-374-450-454-472-202300- ...C-MAN AND BUOY OBSERVATIONS... STATION/POSITION TIME TEMP WIND PRES WAVE SWELL AIR SEA DIR/SP/G HT/PER HT/PER/DIR (UTC) (F) (DEG/KT/KT) (MB) (FT/S) (FT/S/D) FOLLY BEACH CMAN 2100 86 210/ 13/ 15 1015.3S BUOY 41004 2200 84 84 220/ 12/ 14 1014.4F 3/ 5 2/ 9 BUOY 41008 2200 85 85 190/ 12/ 14 1015.4R 1/ 8 2/100/ 8 5E ST. MARYS GA 2200 84 N/A 1/ 9 FRYING PAN BUOY NOT AVBL BUOY 41025 2200 78 300/ 6/ 10 1014.9R 2/10 2/ 50/10 CAPE LOOKOUT NC 2100 81 190/ 7/ 9 1015.0R BUOY 41002 2148 82 81 240/ 12/ 14 1016.6R 5/ 7 3/260/ 7 BUOY 41010 2200 85 86 280/ 4/ 4 1017.8F 2/ 8 2/130/ 8 BUOY 41012 NOT AVBL ST AUGUSTINE FL 2200 82 150/ 9/ 10 1017.1S CAPERS NEARSHORE 2100 86 220/ 14/ 16 N/A FRIPP NEARSHORE NOT AVBL $$

USA.gov is the U.S. government's official web portal to all federal, state and local government web resources and services.